owner,sensor,date,latitude,longitude,vertical_datum,wind_speed,wind_to_direction,wind_speed_of_gust,qcFlag 
ADCP,ioos:station:wmo:42361:1,2014-05-01T00:30:00Z,27.5500,-92.4900,122.0,9.6,350.0,99.0,'11111222,11111222,11144222' 
ADCP,ioos:station:wmo:42361:1,2014-05-01T01:30:00Z,27.5500,-92.4900,122.0,9.1,351.0,99.0,'11111222,11111222,11144222' 
ADCP,ioos:station:wmo:42361:1,2014-05-01T02:30:00Z,27.5500,-92.4900,122.0,9.1,353.0,99.0,'11111222,11111222,11144222' 
ADCP,ioos:station:wmo:42361:1,2014-05-01T03:30:00Z,27.5500,-92.4900,122.0,10.1,350.0,99.0,'11111222,11111222,11144222' 
ADCP,ioos:station:wmo:42361:1,2014-05-01T04:30:00Z,27.5500,-92.4900,122.0,10.2,351.0,99.0,'11111222,11111222,11144222' 
ADCP,ioos:station:wmo:42361:1,2014-05-01T05:30:00Z,27.5500,-92.4900,122.0,11.8,353.0,99.0,'11111222,11111222,11144222' 
ADCP,ioos:station:wmo:42361:1,2014-05-01T06:30:00Z,27.5500,-92.4900,122.0,11.8,3.0,99.0,'11111222,11111222,11144222' 
ADCP,ioos:station:wmo:42361:1,2014-05-01T07:30:00Z,27.5500,-92.4900,122.0,10.9,14.0,99.0,'11111222,11111222,11144222' 
ADCP,ioos:station:wmo:42361:1,2014-05-01T08:30:00Z,27.5500,-92.4900,122.0,23.9,186.0,99.0,'11111222,11111222,11144222' 
ADCP,ioos:station:wmo:42361:1,2014-05-01T09:30:00Z,27.5500,-92.4900,122.0,99.0,18.0,99.0,'11144222,11111222,11144222' 
ADCP,ioos:station:wmo:42361:1,2014-05-01T10:30:00Z,27.5500,-92.4900,122.0,11.0,18.0,99.0,'11111222,11111222,11144222' 
ADCP,ioos:station:wmo:42361:1,2014-05-01T11:30:00Z,27.5500,-92.4900,122.0,12.7,2.0,99.0,'11111222,11111222,11144222' 
ADCP,ioos:station:wmo:42361:1,2014-05-01T12:30:00Z,27.5500,-92.4900,122.0,14.6,2.0,99.0,'11111222,11111222,11144222' 
ADCP,ioos:station:wmo:42361:1,2014-05-01T13:30:00Z,27.5500,-92.4900,122.0,14.7,1.0,99.0,'11111222,11111222,11144222' 
ADCP,ioos:station:wmo:42361:1,2014-05-01T14:30:00Z,27.5500,-92.4900,122.0,14.2,8.0,99.0,'11111222,11111222,11144222' 
ADCP,ioos:station:wmo:42361:1,2014-05-01T15:30:00Z,27.5500,-92.4900,122.0,14.0,6.0,99.0,'11111222,11111222,11144222' 
ADCP,ioos:station:wmo:42361:1,2014-05-01T16:30:00Z,27.5500,-92.4900,122.0,13.5,6.0,99.0,'11111222,11111222,11144222' 
ADCP,ioos:station:wmo:42361:1,2014-05-01T17:30:00Z,27.5500,-92.4900,122.0,12.9,7.0,99.0,'11111222,11111222,11144222' 
ADCP,ioos:station:wmo:42361:1,2014-05-01T18:30:00Z,27.5500,-92.4900,122.0,12.3,13.0,99.0,'11111222,11111222,11144222' 
ADCP,ioos:station:wmo:42361:1,2014-05-01T19:30:00Z,27.5500,-92.4900,122.0,11.5,22.0,99.0,'11111222,11111222,11144222' 
ADCP,ioos:station:wmo:42361:1,2014-05-01T20:30:00Z,27.5500,-92.4900,122.0,8.3,18.0,99.0,'11111222,11111222,11144222' 
ADCP,ioos:station:wmo:42361:1,2014-05-01T21:30:00Z,27.5500,-92.4900,122.0,9.3,27.0,99.0,'11111222,11111222,11144222' 
ADCP,ioos:station:wmo:42361:1,2014-05-01T22:30:00Z,27.5500,-92.4900,122.0,6.7,27.0,99.0,'11111222,11111222,11144222' 
ADCP,ioos:station:wmo:42361:1,2014-05-01T23:30:00Z,27.5500,-92.4900,122.0,19.5,2.0,99.0,'11111222,11111222,11144222' 
ADCP,ioos:station:wmo:42361:1,2014-05-02T00:30:00Z,27.5500,-92.4900,122.0,7.7,44.0,99.0,'11111222,11111222,11144222' 
ADCP,ioos:station:wmo:42361:1,2014-05-02T01:30:00Z,27.5500,-92.4900,122.0,7.1,33.0,99.0,'11111222,11111222,11144222' 
ADCP,ioos:station:wmo:42361:1,2014-05-02T02:30:00Z,27.5500,-92.4900,122.0,6.3,24.0,99.0,'11111222,11111222,11144222' 
ADCP,ioos:station:wmo:42361:1,2014-05-02T03:30:00Z,27.5500,-92.4900,122.0,6.6,18.0,99.0,'11111222,11111222,11144222' 
ADCP,ioos:station:wmo:42361:1,2014-05-02T04:30:00Z,27.5500,-92.4900,122.0,6.7,347.0,99.0,'11111222,11111222,11144222' 
ADCP,ioos:station:wmo:42361:1,2014-05-02T05:30:00Z,27.5500,-92.4900,122.0,6.9,356.0,99.0,'11111222,11111222,11144222' 
ADCP,ioos:station:wmo:42361:1,2014-05-02T06:30:00Z,27.5500,-92.4900,122.0,7.8,11.0,99.0,'11111222,11111222,11144222' 
ADCP,ioos:station:wmo:42361:1,2014-05-02T07:30:00Z,27.5500,-92.4900,122.0,8.5,6.0,99.0,'11111222,11111222,11144222' 
ADCP,ioos:station:wmo:42361:1,2014-05-02T08:30:00Z,27.5500,-92.4900,122.0,8.8,11.0,99.0,'11111222,11111222,11144222' 
ADCP,ioos:station:wmo:42361:1,2014-05-02T09:30:00Z,27.5500,-92.4900,122.0,8.1,6.0,99.0,'11111222,11111222,11144222' 
ADCP,ioos:station:wmo:42361:1,2014-05-02T10:30:00Z,27.5500,-92.4900,122.0,8.7,2.0,99.0,'11111222,11111222,11144222' 
ADCP,ioos:station:wmo:42361:1,2014-05-02T11:30:00Z,27.5500,-92.4900,122.0,9.7,349.0,99.0,'11111222,11111222,11144222' 
ADCP,ioos:station:wmo:42361:1,2014-05-02T12:30:00Z,27.5500,-92.4900,122.0,9.9,351.0,99.0,'11111222,11111222,11144222' 
ADCP,ioos:station:wmo:42361:1,2014-05-02T13:30:00Z,27.5500,-92.4900,122.0,10.7,351.0,99.0,'11111222,11111222,11144222' 
ADCP,ioos:station:wmo:42361:1,2014-05-02T14:30:00Z,27.5500,-92.4900,122.0,10.6,355.0,99.0,'11111222,11111222,11144222' 
ADCP,ioos:station:wmo:42361:1,2014-05-02T15:30:00Z,27.5500,-92.4900,122.0,11.5,358.0,99.0,'11111222,11111222,11144222' 
ADCP,ioos:station:wmo:42361:1,2014-05-02T16:30:00Z,27.5500,-92.4900,122.0,11.7,357.0,99.0,'11111222,11111222,11144222' 
ADCP,ioos:station:wmo:42361:1,2014-05-02T17:30:00Z,27.5500,-92.4900,122.0,10.3,352.0,99.0,'11111222,11111222,11144222' 
ADCP,ioos:station:wmo:42361:1,2014-05-02T18:30:00Z,27.5500,-92.4900,122.0,9.6,357.0,99.0,'11111222,11111222,11144222' 
ADCP,ioos:station:wmo:42361:1,2014-05-02T19:30:00Z,27.5500,-92.4900,122.0,12.5,343.0,99.0,'11111222,11111222,11144222' 
ADCP,ioos:station:wmo:42361:1,2014-05-02T20:30:00Z,27.5500,-92.4900,122.0,10.0,350.0,99.0,'11111222,11111222,11144222' 
ADCP,ioos:station:wmo:42361:1,2014-05-02T21:30:00Z,27.5500,-92.4900,122.0,8.3,4.0,99.0,'11111222,11111222,11144222' 
ADCP,ioos:station:wmo:42361:1,2014-05-02T22:30:00Z,27.5500,-92.4900,122.0,7.4,357.0,99.0,'11111222,11111222,11144222' 
ADCP,ioos:station:wmo:42361:1,2014-05-02T23:30:00Z,27.5500,-92.4900,122.0,6.9,351.0,99.0,'11111222,11111222,11144222' 
ADCP,ioos:station:wmo:42361:1,2014-05-03T00:30:00Z,27.5500,-92.4900,122.0,6.6,341.0,99.0,'11111222,11111222,11144222' 
ADCP,ioos:station:wmo:42361:1,2014-05-03T01:30:00Z,27.5500,-92.4900,122.0,5.9,339.0,99.0,'11111222,11111222,11144222' 
ADCP,ioos:station:wmo:42361:1,2014-05-03T02:30:00Z,27.5500,-92.4900,122.0,6.2,334.0,99.0,'11111222,11111222,11144222' 
ADCP,ioos:station:wmo:42361:1,2014-05-03T03:30:00Z,27.5500,-92.4900,122.0,5.9,317.0,99.0,'11111222,11111222,11144222' 
ADCP,ioos:station:wmo:42361:1,2014-05-03T04:30:00Z,27.5500,-92.4900,122.0,4.6,321.0,99.0,'11111222,11111222,11144222' 
ADCP,ioos:station:wmo:42361:1,2014-05-03T05:30:00Z,27.5500,-92.4900,122.0,4.0,336.0,99.0,'11111222,11111222,11144222' 
ADCP,ioos:station:wmo:42361:1,2014-05-03T06:30:00Z,27.5500,-92.4900,122.0,3.7,330.0,99.0,'11111222,11111222,11144222' 
ADCP,ioos:station:wmo:42361:1,2014-05-03T07:30:00Z,27.5500,-92.4900,122.0,3.7,318.0,99.0,'11111222,11111222,11144222' 
ADCP,ioos:station:wmo:42361:1,2014-05-03T08:30:00Z,27.5500,-92.4900,122.0,3.2,307.0,99.0,'11111222,11111222,11144222' 
ADCP,ioos:station:wmo:42361:1,2014-05-03T09:30:00Z,27.5500,-92.4900,122.0,3.7,303.0,99.0,'11111222,11111222,11144222' 
ADCP,ioos:station:wmo:42361:1,2014-05-03T10:30:00Z,27.5500,-92.4900,122.0,4.2,298.0,99.0,'11111222,11111222,11144222' 
ADCP,ioos:station:wmo:42361:1,2014-05-03T11:30:00Z,27.5500,-92.4900,122.0,4.0,297.0,99.0,'11111222,11111222,11144222' 
ADCP,ioos:station:wmo:42361:1,2014-05-03T12:30:00Z,27.5500,-92.4900,122.0,3.3,293.0,99.0,'11111222,11111222,11144222' 
ADCP,ioos:station:wmo:42361:1,2014-05-03T13:30:00Z,27.5500,-92.4900,122.0,4.7,290.0,99.0,'11111222,11111222,11144222' 
ADCP,ioos:station:wmo:42361:1,2014-05-03T14:30:00Z,27.5500,-92.4900,122.0,5.9,291.0,99.0,'11111222,11111222,11144222' 
ADCP,ioos:station:wmo:42361:1,2014-05-03T15:30:00Z,27.5500,-92.4900,122.0,6.5,296.0,99.0,'11111222,11111222,11144222' 
ADCP,ioos:station:wmo:42361:1,2014-05-03T16:30:00Z,27.5500,-92.4900,122.0,7.1,297.0,99.0,'11111222,11111222,11144222' 
ADCP,ioos:station:wmo:42361:1,2014-05-03T17:30:00Z,27.5500,-92.4900,122.0,6.4,299.0,99.0,'11111222,11111222,11144222' 
ADCP,ioos:station:wmo:42361:1,2014-05-03T18:30:00Z,27.5500,-92.4900,122.0,4.7,293.0,99.0,'11111222,11111222,11144222' 
ADCP,ioos:station:wmo:42361:1,2014-05-03T19:30:00Z,27.5500,-92.4900,122.0,2.8,294.0,99.0,'11111222,11111222,11144222' 
ADCP,ioos:station:wmo:42361:1,2014-05-03T20:30:00Z,27.5500,-92.4900,122.0,2.1,290.0,99.0,'11111222,11111222,11144222' 
ADCP,ioos:station:wmo:42361:1,2014-05-03T21:30:00Z,27.5500,-92.4900,122.0,1.6,291.0,99.0,'11111222,11111222,11144222' 
ADCP,ioos:station:wmo:42361:1,2014-05-03T22:30:00Z,27.5500,-92.4900,122.0,2.1,275.0,99.0,'11111222,11111222,11144222' 
ADCP,ioos:station:wmo:42361:1,2014-05-03T23:30:00Z,27.5500,-92.4900,122.0,2.2,280.0,99.0,'11111222,11111222,11144222' 
ADCP,ioos:station:wmo:42361:1,2014-05-04T00:30:00Z,27.5500,-92.4900,122.0,2.1,270.0,99.0,'11111222,11111222,11144222' 
ADCP,ioos:station:wmo:42361:1,2014-05-04T01:30:00Z,27.5500,-92.4900,122.0,2.2,265.0,99.0,'11111222,11111222,11144222' 
ADCP,ioos:station:wmo:42361:1,2014-05-04T02:30:00Z,27.5500,-92.4900,122.0,3.0,246.0,99.0,'11111222,11111222,11144222' 
ADCP,ioos:station:wmo:42361:1,2014-05-04T03:30:00Z,27.5500,-92.4900,122.0,3.7,227.0,99.0,'11111222,11111222,11144222' 
ADCP,ioos:station:wmo:42361:1,2014-05-04T04:30:00Z,27.5500,-92.4900,122.0,3.8,218.0,99.0,'11111222,11111222,11144222' 
ADCP,ioos:station:wmo:42361:1,2014-05-04T05:30:00Z,27.5500,-92.4900,122.0,4.0,207.0,99.0,'11111222,11111222,11144222' 
ADCP,ioos:station:wmo:42361:1,2014-05-04T06:30:00Z,27.5500,-92.4900,122.0,5.1,192.0,99.0,'11111222,11111222,11144222' 
ADCP,ioos:station:wmo:42361:1,2014-05-04T07:30:00Z,27.5500,-92.4900,122.0,5.3,201.0,99.0,'11111222,11111222,11144222' 
ADCP,ioos:station:wmo:42361:1,2014-05-04T08:30:00Z,27.5500,-92.4900,122.0,5.4,206.0,99.0,'11111222,11111222,11144222' 
ADCP,ioos:station:wmo:42361:1,2014-05-04T09:30:00Z,27.5500,-92.4900,122.0,5.7,202.0,99.0,'11111222,11111222,11144222' 
ADCP,ioos:station:wmo:42361:1,2014-05-04T10:30:00Z,27.5500,-92.4900,122.0,6.1,201.0,99.0,'11111222,11111222,11144222' 
ADCP,ioos:station:wmo:42361:1,2014-05-04T11:30:00Z,27.5500,-92.4900,122.0,6.5,198.0,99.0,'11111222,11111222,11144222' 
ADCP,ioos:station:wmo:42361:1,2014-05-04T12:30:00Z,27.5500,-92.4900,122.0,6.1,209.0,99.0,'11111222,11111222,11144222' 
ADCP,ioos:station:wmo:42361:1,2014-05-04T13:30:00Z,27.5500,-92.4900,122.0,6.0,206.0,99.0,'11111222,11111222,11144222' 
ADCP,ioos:station:wmo:42361:1,2014-05-04T14:30:00Z,27.5500,-92.4900,122.0,5.6,206.0,99.0,'11111222,11111222,11144222' 
ADCP,ioos:station:wmo:42361:1,2014-05-04T15:30:00Z,27.5500,-92.4900,122.0,5.0,207.0,99.0,'11111222,11111222,11144222' 
ADCP,ioos:station:wmo:42361:1,2014-05-04T16:30:00Z,27.5500,-92.4900,122.0,4.3,220.0,99.0,'11111222,11111222,11144222' 
ADCP,ioos:station:wmo:42361:1,2014-05-04T17:30:00Z,27.5500,-92.4900,122.0,4.2,222.0,99.0,'11111222,11111222,11144222' 
ADCP,ioos:station:wmo:42361:1,2014-05-04T18:30:00Z,27.5500,-92.4900,122.0,3.8,241.0,99.0,'11111222,11111222,11144222' 
ADCP,ioos:station:wmo:42361:1,2014-05-04T19:30:00Z,27.5500,-92.4900,122.0,2.8,256.0,99.0,'11111222,11111222,11144222' 
ADCP,ioos:station:wmo:42361:1,2014-05-04T20:30:00Z,27.5500,-92.4900,122.0,2.4,268.0,99.0,'11111222,11111222,11144222' 
ADCP,ioos:station:wmo:42361:1,2014-05-04T21:30:00Z,27.5500,-92.4900,122.0,1.7,278.0,99.0,'11111222,11111222,11144222' 
ADCP,ioos:station:wmo:42361:1,2014-05-04T22:30:00Z,27.5500,-92.4900,122.0,0.3,341.0,99.0,'11111222,11111222,11144222' 
ADCP,ioos:station:wmo:42361:1,2014-05-04T23:30:00Z,27.5500,-92.4900,122.0,1.0,307.0,99.0,'11111222,11111222,11144222' 
ADCP,ioos:station:wmo:42361:1,2014-05-05T00:30:00Z,27.5500,-92.4900,122.0,0.7,327.0,99.0,'11111222,11111222,11144222' 
ADCP,ioos:station:wmo:42361:1,2014-05-05T01:30:00Z,27.5500,-92.4900,122.0,0.8,325.0,99.0,'11111222,11111222,11144222' 
ADCP,ioos:station:wmo:42361:1,2014-05-05T02:30:00Z,27.5500,-92.4900,122.0,0.2,354.0,99.0,'11111222,11111222,11144222' 
ADCP,ioos:station:wmo:42361:1,2014-05-05T03:30:00Z,27.5500,-92.4900,122.0,0.0,0.0,99.0,'11111222,11111222,11144222' 
ADCP,ioos:station:wmo:42361:1,2014-05-05T04:30:00Z,27.5500,-92.4900,122.0,1.3,64.0,99.0,'11111222,11111222,11144222' 
ADCP,ioos:station:wmo:42361:1,2014-05-05T05:30:00Z,27.5500,-92.4900,122.0,2.5,114.0,99.0,'11111222,11111222,11144222' 
ADCP,ioos:station:wmo:42361:1,2014-05-05T06:30:00Z,27.5500,-92.4900,122.0,3.4,121.0,99.0,'11111222,11111222,11144222' 
ADCP,ioos:station:wmo:42361:1,2014-05-05T07:30:00Z,27.5500,-92.4900,122.0,4.2,126.0,99.0,'11111222,11111222,11144222' 
ADCP,ioos:station:wmo:42361:1,2014-05-05T08:30:00Z,27.5500,-92.4900,122.0,4.7,126.0,99.0,'11111222,11111222,11144222' 
ADCP,ioos:station:wmo:42361:1,2014-05-05T09:30:00Z,27.5500,-92.4900,122.0,4.5,126.0,99.0,'11111222,11111222,11144222' 
ADCP,ioos:station:wmo:42361:1,2014-05-05T10:30:00Z,27.5500,-92.4900,122.0,4.9,129.0,99.0,'11111222,11111222,11144222' 
ADCP,ioos:station:wmo:42361:1,2014-05-05T11:30:00Z,27.5500,-92.4900,122.0,5.0,135.0,99.0,'11111222,11111222,11144222' 
ADCP,ioos:station:wmo:42361:1,2014-05-05T12:30:00Z,27.5500,-92.4900,122.0,4.9,143.0,99.0,'11111222,11111222,11144222' 
ADCP,ioos:station:wmo:42361:1,2014-05-05T13:30:00Z,27.5500,-92.4900,122.0,4.8,145.0,99.0,'11111222,11111222,11144222' 
ADCP,ioos:station:wmo:42361:1,2014-05-05T14:30:00Z,27.5500,-92.4900,122.0,5.4,150.0,99.0,'11111222,11111222,11144222' 
ADCP,ioos:station:wmo:42361:1,2014-05-05T15:30:00Z,27.5500,-92.4900,122.0,5.2,148.0,99.0,'11111222,11111222,11144222' 
ADCP,ioos:station:wmo:42361:1,2014-05-05T16:30:00Z,27.5500,-92.4900,122.0,4.8,145.0,99.0,'11111222,11111222,11144222' 
ADCP,ioos:station:wmo:42361:1,2014-05-05T17:30:00Z,27.5500,-92.4900,122.0,4.9,149.0,99.0,'11111222,11111222,11144222' 
ADCP,ioos:station:wmo:42361:1,2014-05-05T18:30:00Z,27.5500,-92.4900,122.0,4.9,153.0,99.0,'11111222,11111222,11144222' 
ADCP,ioos:station:wmo:42361:1,2014-05-05T19:30:00Z,27.5500,-92.4900,122.0,4.9,157.0,99.0,'11111222,11111222,11144222' 
ADCP,ioos:station:wmo:42361:1,2014-05-05T20:30:00Z,27.5500,-92.4900,122.0,4.0,161.0,99.0,'11111222,11111222,11144222' 
ADCP,ioos:station:wmo:42361:1,2014-05-05T21:30:00Z,27.5500,-92.4900,122.0,3.2,167.0,99.0,'11111222,11111222,11144222' 
ADCP,ioos:station:wmo:42361:1,2014-05-05T22:30:00Z,27.5500,-92.4900,122.0,3.4,150.0,99.0,'11111222,11111222,11144222' 
ADCP,ioos:station:wmo:42361:1,2014-05-05T23:30:00Z,27.5500,-92.4900,122.0,3.7,126.0,99.0,'11111222,11111222,11144222' 
ADCP,ioos:station:wmo:42361:1,2014-05-06T00:30:00Z,27.5500,-92.4900,122.0,3.9,116.0,99.0,'11111222,11111222,11144222' 
ADCP,ioos:station:wmo:42361:1,2014-05-06T01:30:00Z,27.5500,-92.4900,122.0,4.7,111.0,99.0,'11111222,11111222,11144222' 
ADCP,ioos:station:wmo:42361:1,2014-05-06T02:30:00Z,27.5500,-92.4900,122.0,5.0,124.0,99.0,'11111222,11111222,11144222' 
ADCP,ioos:station:wmo:42361:1,2014-05-06T03:30:00Z,27.5500,-92.4900,122.0,5.4,144.0,99.0,'11111222,11111222,11144222' 
ADCP,ioos:station:wmo:42361:1,2014-05-06T04:30:00Z,27.5500,-92.4900,122.0,7.6,134.0,99.0,'11111222,11111222,11144222' 
ADCP,ioos:station:wmo:42361:1,2014-05-06T05:30:00Z,27.5500,-92.4900,122.0,7.6,133.0,99.0,'11111222,11111222,11144222' 
ADCP,ioos:station:wmo:42361:1,2014-05-06T06:30:00Z,27.5500,-92.4900,122.0,7.8,133.0,99.0,'11111222,11111222,11144222' 
ADCP,ioos:station:wmo:42361:1,2014-05-06T07:30:00Z,27.5500,-92.4900,122.0,7.9,138.0,99.0,'11111222,11111222,11144222' 
ADCP,ioos:station:wmo:42361:1,2014-05-06T08:30:00Z,27.5500,-92.4900,122.0,8.2,141.0,99.0,'11111222,11111222,11144222' 
ADCP,ioos:station:wmo:42361:1,2014-05-06T09:30:00Z,27.5500,-92.4900,122.0,8.5,137.0,99.0,'11111222,11111222,11144222' 
ADCP,ioos:station:wmo:42361:1,2014-05-06T10:30:00Z,27.5500,-92.4900,122.0,8.6,137.0,99.0,'11111222,11111222,11144222' 
ADCP,ioos:station:wmo:42361:1,2014-05-06T11:30:00Z,27.5500,-92.4900,122.0,8.0,137.0,99.0,'11111222,11111222,11144222' 
ADCP,ioos:station:wmo:42361:1,2014-05-06T12:30:00Z,27.5500,-92.4900,122.0,7.7,129.0,99.0,'11111222,11111222,11144222' 
ADCP,ioos:station:wmo:42361:1,2014-05-06T13:30:00Z,27.5500,-92.4900,122.0,7.1,118.0,99.0,'11111222,11111222,11144222' 
ADCP,ioos:station:wmo:42361:1,2014-05-06T14:30:00Z,27.5500,-92.4900,122.0,7.2,112.0,99.0,'11111222,11111222,11144222' 
ADCP,ioos:station:wmo:42361:1,2014-05-06T15:30:00Z,27.5500,-92.4900,122.0,7.8,112.0,99.0,'11111222,11111222,11144222' 
ADCP,ioos:station:wmo:42361:1,2014-05-06T16:30:00Z,27.5500,-92.4900,122.0,7.6,111.0,99.0,'11111222,11111222,11144222' 
ADCP,ioos:station:wmo:42361:1,2014-05-06T17:30:00Z,27.5500,-92.4900,122.0,7.9,110.0,99.0,'11111222,11111222,11144222' 
ADCP,ioos:station:wmo:42361:1,2014-05-06T18:30:00Z,27.5500,-92.4900,122.0,8.4,110.0,99.0,'11111222,11111222,11144222' 
ADCP,ioos:station:wmo:42361:1,2014-05-06T19:30:00Z,27.5500,-92.4900,122.0,8.4,117.0,99.0,'11111222,11111222,11144222' 
ADCP,ioos:station:wmo:42361:1,2014-05-06T20:30:00Z,27.5500,-92.4900,122.0,8.7,106.0,99.0,'11111222,11111222,11144222' 
ADCP,ioos:station:wmo:42361:1,2014-05-06T21:30:00Z,27.5500,-92.4900,122.0,8.2,100.0,99.0,'11111222,11111222,11144222' 
ADCP,ioos:station:wmo:42361:1,2014-05-06T22:30:00Z,27.5500,-92.4900,122.0,8.1,100.0,99.0,'11111222,11111222,11144222' 
ADCP,ioos:station:wmo:42361:1,2014-05-06T23:30:00Z,27.5500,-92.4900,122.0,8.1,96.0,99.0,'11111222,11111222,11144222' 
ADCP,ioos:station:wmo:42361:1,2014-05-07T00:30:00Z,27.5500,-92.4900,122.0,7.2,88.0,99.0,'11111222,11111222,11144222' 
ADCP,ioos:station:wmo:42361:1,2014-05-07T01:30:00Z,27.5500,-92.4900,122.0,7.1,104.0,99.0,'11111222,11111222,11144222' 
ADCP,ioos:station:wmo:42361:1,2014-05-07T02:30:00Z,27.5500,-92.4900,122.0,8.6,102.0,99.0,'11111222,11111222,11144222' 
ADCP,ioos:station:wmo:42361:1,2014-05-07T03:30:00Z,27.5500,-92.4900,122.0,10.3,101.0,99.0,'11111222,11111222,11144222' 
ADCP,ioos:station:wmo:42361:1,2014-05-07T04:30:00Z,27.5500,-92.4900,122.0,11.0,108.0,99.0,'11111222,11111222,11144222' 
ADCP,ioos:station:wmo:42361:1,2014-05-07T05:30:00Z,27.5500,-92.4900,122.0,10.6,110.0,99.0,'11111222,11111222,11144222' 
ADCP,ioos:station:wmo:42361:1,2014-05-07T06:30:00Z,27.5500,-92.4900,122.0,8.0,119.0,99.0,'11111222,11111222,11144222' 
ADCP,ioos:station:wmo:42361:1,2014-05-07T07:30:00Z,27.5500,-92.4900,122.0,9.3,115.0,99.0,'11111222,11111222,11144222' 
ADCP,ioos:station:wmo:42361:1,2014-05-07T08:30:00Z,27.5500,-92.4900,122.0,11.3,118.0,99.0,'11111222,11111222,11144222' 
ADCP,ioos:station:wmo:42361:1,2014-05-07T09:30:00Z,27.5500,-92.4900,122.0,10.9,120.0,99.0,'11111222,11111222,11144222' 
ADCP,ioos:station:wmo:42361:1,2014-05-07T10:30:00Z,27.5500,-92.4900,122.0,8.8,122.0,99.0,'11111222,11111222,11144222' 
ADCP,ioos:station:wmo:42361:1,2014-05-07T11:30:00Z,27.5500,-92.4900,122.0,9.0,126.0,99.0,'11111222,11111222,11144222' 
ADCP,ioos:station:wmo:42361:1,2014-05-07T12:30:00Z,27.5500,-92.4900,122.0,8.4,130.0,99.0,'11111222,11111222,11144222' 
ADCP,ioos:station:wmo:42361:1,2014-05-07T13:30:00Z,27.5500,-92.4900,122.0,6.6,127.0,99.0,'11111222,11111222,11144222' 
ADCP,ioos:station:wmo:42361:1,2014-05-07T14:30:00Z,27.5500,-92.4900,122.0,7.3,122.0,99.0,'11111222,11111222,11144222' 
ADCP,ioos:station:wmo:42361:1,2014-05-07T15:30:00Z,27.5500,-92.4900,122.0,6.9,113.0,99.0,'11111222,11111222,11144222' 
ADCP,ioos:station:wmo:42361:1,2014-05-07T16:30:00Z,27.5500,-92.4900,122.0,7.0,104.0,99.0,'11111222,11111222,11144222' 
ADCP,ioos:station:wmo:42361:1,2014-05-07T17:30:00Z,27.5500,-92.4900,122.0,7.8,102.0,99.0,'11111222,11111222,11144222' 
ADCP,ioos:station:wmo:42361:1,2014-05-07T18:30:00Z,27.5500,-92.4900,122.0,7.8,114.0,99.0,'11111222,11111222,11144222' 
ADCP,ioos:station:wmo:42361:1,2014-05-07T19:30:00Z,27.5500,-92.4900,122.0,6.1,123.0,99.0,'11111222,11111222,11144222' 
ADCP,ioos:station:wmo:42361:1,2014-05-07T20:30:00Z,27.5500,-92.4900,122.0,7.6,114.0,99.0,'11111222,11111222,11144222' 
ADCP,ioos:station:wmo:42361:1,2014-05-07T21:30:00Z,27.5500,-92.4900,122.0,9.2,110.0,99.0,'11111222,11111222,11144222' 
ADCP,ioos:station:wmo:42361:1,2014-05-07T22:30:00Z,27.5500,-92.4900,122.0,10.4,109.0,99.0,'11111222,11111222,11144222' 
ADCP,ioos:station:wmo:42361:1,2014-05-07T23:30:00Z,27.5500,-92.4900,122.0,10.6,101.0,99.0,'11111222,11111222,11144222' 
ADCP,ioos:station:wmo:42361:1,2014-05-08T00:30:00Z,27.5500,-92.4900,122.0,11.4,100.0,99.0,'11111222,11111222,11144222' 
ADCP,ioos:station:wmo:42361:1,2014-05-08T01:30:00Z,27.5500,-92.4900,122.0,12.7,102.0,99.0,'11111222,11111222,11144222' 
ADCP,ioos:station:wmo:42361:1,2014-05-08T02:30:00Z,27.5500,-92.4900,122.0,13.6,110.0,99.0,'11111222,11111222,11144222' 
ADCP,ioos:station:wmo:42361:1,2014-05-08T03:30:00Z,27.5500,-92.4900,122.0,14.4,110.0,99.0,'11111222,11111222,11144222' 
ADCP,ioos:station:wmo:42361:1,2014-05-08T04:30:00Z,27.5500,-92.4900,122.0,15.0,110.0,99.0,'11111222,11111222,11144222' 
ADCP,ioos:station:wmo:42361:1,2014-05-08T05:30:00Z,27.5500,-92.4900,122.0,15.7,111.0,99.0,'11111222,11111222,11144222' 
ADCP,ioos:station:wmo:42361:1,2014-05-08T06:30:00Z,27.5500,-92.4900,122.0,15.1,120.0,99.0,'11111222,11111222,11144222' 
ADCP,ioos:station:wmo:42361:1,2014-05-08T07:30:00Z,27.5500,-92.4900,122.0,14.9,112.0,99.0,'11111222,11111222,11144222' 
ADCP,ioos:station:wmo:42361:1,2014-05-08T08:30:00Z,27.5500,-92.4900,122.0,13.9,110.0,99.0,'11111222,11111222,11144222' 
ADCP,ioos:station:wmo:42361:1,2014-05-08T09:30:00Z,27.5500,-92.4900,122.0,13.2,110.0,99.0,'11111222,11111222,11144222' 
ADCP,ioos:station:wmo:42361:1,2014-05-08T10:30:00Z,27.5500,-92.4900,122.0,13.0,110.0,99.0,'11111222,11111222,11144222' 
ADCP,ioos:station:wmo:42361:1,2014-05-08T11:30:00Z,27.5500,-92.4900,122.0,12.3,110.0,99.0,'11111222,11111222,11144222' 
ADCP,ioos:station:wmo:42361:1,2014-05-08T12:30:00Z,27.5500,-92.4900,122.0,11.4,110.0,99.0,'11111222,11111222,11144222' 
ADCP,ioos:station:wmo:42361:1,2014-05-08T13:30:00Z,27.5500,-92.4900,122.0,10.4,105.0,99.0,'11111222,11111222,11144222' 
ADCP,ioos:station:wmo:42361:1,2014-05-08T14:30:00Z,27.5500,-92.4900,122.0,11.7,100.0,99.0,'11111222,11111222,11144222' 
ADCP,ioos:station:wmo:42361:1,2014-05-08T15:30:00Z,27.5500,-92.4900,122.0,12.0,105.0,99.0,'11111222,11111222,11144222' 
ADCP,ioos:station:wmo:42361:1,2014-05-08T16:30:00Z,27.5500,-92.4900,122.0,12.9,109.0,99.0,'11111222,11111222,11144222' 
ADCP,ioos:station:wmo:42361:1,2014-05-08T17:30:00Z,27.5500,-92.4900,122.0,12.8,110.0,99.0,'11111222,11111222,11144222' 
ADCP,ioos:station:wmo:42361:1,2014-05-08T18:30:00Z,27.5500,-92.4900,122.0,12.9,110.0,99.0,'11111222,11111222,11144222' 
ADCP,ioos:station:wmo:42361:1,2014-05-08T19:30:00Z,27.5500,-92.4900,122.0,13.0,114.0,99.0,'11111222,11111222,11144222' 
ADCP,ioos:station:wmo:42361:1,2014-05-08T20:30:00Z,27.5500,-92.4900,122.0,12.1,120.0,99.0,'11111222,11111222,11144222' 
ADCP,ioos:station:wmo:42361:1,2014-05-08T21:30:00Z,27.5500,-92.4900,122.0,11.5,121.0,99.0,'11111222,11111222,11144222' 
ADCP,ioos:station:wmo:42361:1,2014-05-08T22:30:00Z,27.5500,-92.4900,122.0,10.1,120.0,99.0,'11111222,11111222,11144222' 
ADCP,ioos:station:wmo:42361:1,2014-05-08T23:30:00Z,27.5500,-92.4900,122.0,8.9,118.0,99.0,'11111222,11111222,11144222' 
ADCP,ioos:station:wmo:42361:1,2014-05-09T00:30:00Z,27.5500,-92.4900,122.0,10.7,117.0,99.0,'11111222,11111222,11144222' 
ADCP,ioos:station:wmo:42361:1,2014-05-09T01:30:00Z,27.5500,-92.4900,122.0,11.6,110.0,99.0,'11111222,11111222,11144222' 
ADCP,ioos:station:wmo:42361:1,2014-05-09T02:30:00Z,27.5500,-92.4900,122.0,11.0,110.0,99.0,'11111222,11111222,11144222' 
ADCP,ioos:station:wmo:42361:1,2014-05-09T03:30:00Z,27.5500,-92.4900,122.0,11.9,112.0,99.0,'11111222,11111222,11144222' 
ADCP,ioos:station:wmo:42361:1,2014-05-09T04:30:00Z,27.5500,-92.4900,122.0,12.3,118.0,99.0,'11111222,11111222,11144222' 
ADCP,ioos:station:wmo:42361:1,2014-05-09T05:30:00Z,27.5500,-92.4900,122.0,11.8,120.0,99.0,'11111222,11111222,11144222' 
ADCP,ioos:station:wmo:42361:1,2014-05-09T06:30:00Z,27.5500,-92.4900,122.0,11.0,120.0,99.0,'11111222,11111222,11144222' 
ADCP,ioos:station:wmo:42361:1,2014-05-09T07:30:00Z,27.5500,-92.4900,122.0,9.9,120.0,99.0,'11111222,11111222,11144222' 